| time (UTC) | temp C | wind direction | speed KPH | gust KPH | rain 1hr cm | rain 24hr cm | rain mn cm | humidity % | barometer mb |
| 20260505114402 | 15 | 188 | 6.4 | 14.5 | 0.00 | 0.03 | 0.00 | 70 | 1011.5 |
| 20260505113902 | 15 | 170 | 6.4 | 17.7 | 0.00 | 0.03 | 0.00 | 71 | 1011.4 |
| 20260505113403 | 15 | 123 | 4.8 | 14.5 | 0.00 | 0.03 | 0.00 | 71 | 1011.3 |
| 20260505112905 | 14 | 140 | 3.2 | 14.5 | 0.00 | 0.03 | 0.00 | 72 | 1011.2 |
| 20260505112402 | 14 | 161 | 3.2 | 11.3 | 0.00 | 0.03 | 0.00 | 72 | 1011.2 |
| 20260505111902 | 14 | 123 | 6.4 | 11.3 | 0.00 | 0.03 | 0.00 | 72 | 1011.1 |
| 20260505111402 | 14 | 130 | 6.4 | 12.9 | 0.00 | 0.03 | 0.00 | 72 | 1011.0 |
| 20260505110903 | 14 | 116 | 6.4 | 14.5 | 0.00 | 0.03 | 0.00 | 72 | 1011.0 |
| 20260505110402 | 14 | 145 | 4.8 | 14.5 | 0.00 | 0.03 | 0.00 | 72 | 1010.8 |
| 20260505101902 | 13 | 140 | 4.8 | 16.1 | 0.00 | 0.03 | 0.00 | 73 | 1010.3 |
| 20260505101402 | 13 | 159 | 4.8 | 12.9 | 0.00 | 0.03 | 0.00 | 73 | 1010.4 |
| 20260505100902 | 13 | 82 | 3.2 | 11.3 | 0.00 | 0.03 | 0.00 | 73 | 1010.5 |
| 20260505100402 | 13 | 199 | 1.6 | 11.3 | 0.00 | 0.03 | 0.00 | 73 | 1010.3 |
| 20260505095904 | 13 | 171 | 1.6 | 11.3 | 0.00 | 0.03 | 0.00 | 73 | 1010.3 |
| 20260505095402 | 13 | 134 | 1.6 | 6.4 | 0.00 | 0.03 | 0.00 | 73 | 1010.3 |
| 20260505094902 | 13 | 174 | 1.6 | 9.7 | 0.00 | 0.03 | 0.00 | 73 | 1010.3 |
| 20260505094404 | 13 | 136 | 3.2 | 8.0 | 0.00 | 0.03 | 0.00 | 73 | 1010.4 |
| 20260505093902 | 13 | 219 | 1.6 | 11.3 | 0.00 | 0.03 | 0.00 | 73 | 1010.4 |
| 20260505093402 | 13 | 185 | 1.6 | 9.7 | 0.00 | 0.03 | 0.00 | 73 | 1010.3 |
| 20260505092907 | 13 | 161 | 1.6 | 6.4 | 0.00 | 0.03 | 0.00 | 72 | 1010.4 |
| 20260505092402 | 13 | 164 | 3.2 | 6.4 | 0.00 | 0.03 | 0.00 | 72 | 1010.4 |
| 20260505091902 | 13 | 154 | 3.2 | 8.0 | 0.00 | 0.03 | 0.00 | 72 | 1010.3 |
| 20260505091403 | 13 | 134 | 3.2 | 8.0 | 0.00 | 0.03 | 0.00 | 72 | 1010.3 |
| 20260505090956 | 13 | 148 | 3.2 | 11.3 | 0.00 | 0.03 | 0.00 | 72 | 1010.2 |
| 20260505090902 | 13 | 148 | 3.2 | 11.3 | 0.00 | 0.03 | 0.00 | 72 | 1010.2 |
| 20260505090403 | 13 | 148 | 3.2 | 8.0 | 0.00 | 0.03 | 0.00 | 73 | 1010.2 |
| 20260505085904 | 13 | 134 | 1.6 | 8.0 | 0.00 | 0.03 | 0.00 | 73 | 1010.0 |
| 20260505085403 | 13 | 102 | 1.6 | 3.2 | 0.00 | 0.03 | 0.00 | 73 | 1010.1 |
| 20260505084902 | 13 | 105 | 0.0 | 8.0 | 0.00 | 0.03 | 0.00 | 73 | 1010.0 |
| 20260505084402 | 13 | 117 | 0.0 | 1.6 | 0.00 | 0.03 | 0.00 | 73 | 1010.0 |
| 20260505084057 | 13 | 240 | 0.0 | 3.2 | 0.00 | 0.03 | 0.00 | 73 | 1009.9 |
| 20260505083902 | 13 | 240 | 0.0 | 3.2 | 0.00 | 0.03 | 0.00 | 73 | 1009.9 |
| 20260505083405 | 13 | 117 | 0.0 | 1.6 | 0.00 | 0.03 | 0.00 | 73 | 1010.0 |
| 20260505082906 | 13 | 52 | 0.0 | 0.0 | 0.00 | 0.03 | 0.00 | 73 | 1010.0 |
| 20260505082402 | 13 | 52 | 0.0 | 0.0 | 0.00 | 0.03 | 0.00 | 73 | 1010.1 |
| 20260505081902 | 13 | 154 | 0.0 | 3.2 | 0.00 | 0.03 | 0.00 | 73 | 1010.1 |
| 20260505081403 | 13 | 173 | 0.0 | 0.0 | 0.00 | 0.03 | 0.00 | 73 | 1010.1 |
| 20260505080902 | 13 | 169 | 0.0 | 3.2 | 0.00 | 0.03 | 0.00 | 72 | 1010.2 |
| 20260505080402 | 13 | 157 | 0.0 | 1.6 | 0.00 | 0.03 | 0.00 | 72 | 1010.2 |
| 20260505075907 | 13 | 111 | 0.0 | 4.8 | 0.00 | 0.03 | 0.00 | 72 | 1010.1 |
| 20260505075402 | 13 | 113 | 1.6 | 4.8 | 0.00 | 0.03 | 0.00 | 72 | 1010.1 |
| 20260505074902 | 13 | 91 | 1.6 | 4.8 | 0.00 | 0.03 | 0.00 | 71 | 1010.0 |
| 20260505074402 | 13 | 163 | 1.6 | 11.3 | 0.00 | 0.03 | 0.00 | 71 | 1010.1 |
| 20260505074133 | 14 | 118 | 1.6 | 6.4 | 0.00 | 0.03 | 0.00 | 71 | 1010.0 |
| 20260505073902 | 14 | 118 | 1.6 | 6.4 | 0.00 | 0.03 | 0.00 | 71 | 1010.0 |
| 20260505073403 | 14 | 108 | 1.6 | 4.8 | 0.00 | 0.03 | 0.00 | 70 | 1010.0 |
| 20260505072902 | 14 | 98 | 1.6 | 4.8 | 0.00 | 0.03 | 0.00 | 70 | 1009.9 |
| 20260505072405 | 14 | 104 | 1.6 | 3.2 | 0.00 | 0.03 | 0.00 | 70 | 1009.9 |
| 20260505071902 | 14 | 111 | 0.0 | 4.8 | 0.00 | 0.03 | 0.00 | 70 | 1009.8 |
| 20260505071721 | 14 | 126 | 0.0 | 3.2 | 0.00 | 0.03 | 0.00 | 70 | 1009.8 |
| 20260505071403 | 14 | 126 | 0.0 | 3.2 | 0.00 | 0.03 | 0.00 | 70 | 1009.8 |
| 20260505070903 | 14 | 101 | 0.0 | 3.2 | 0.00 | 0.03 | 0.00 | 70 | 1009.8 |
| 20260505070403 | 14 | 69 | 0.0 | 6.4 | 0.00 | 0.03 | 0.00 | 70 | 1009.8 |
| 20260505065905 | 14 | 92 | 0.0 | 3.2 | 0.00 | 0.03 | 0.00 | 70 | 1009.8 |
| 20260505065809 | 15 | 274 | 0.0 | 0.0 | 0.00 | 0.03 | 0.00 | 69 | 1009.9 |
| 20260505065403 | 15 | 274 | 0.0 | 0.0 | 0.00 | 0.03 | 0.00 | 69 | 1009.9 |
| 20260505064902 | 15 | 245 | 0.0 | 3.2 | 0.00 | 0.03 | 0.00 | 68 | 1009.9 |
| 20260505064403 | 15 | 91 | 0.0 | 3.2 | 0.00 | 0.03 | 0.00 | 68 | 1010.0 |
| 20260505064049 | 15 | 101 | 0.0 | 6.4 | 0.00 | 0.03 | 0.00 | 69 | 1010.0 |
| 20260505063903 | 15 | 101 | 0.0 | 6.4 | 0.00 | 0.03 | 0.00 | 69 | 1010.0 |
| 20260505063403 | 15 | 144 | 1.6 | 1.6 | 0.00 | 0.03 | 0.00 | 69 | 1010.0 |
| 20260505062905 | 15 | 160 | 1.6 | 4.8 | 0.00 | 0.03 | 0.00 | 69 | 1010.0 |
| 20260505062403 | 15 | 129 | 0.0 | 4.8 | 0.00 | 0.03 | 0.00 | 68 | 1010.0 |
| 20260505061903 | 15 | 159 | 0.0 | 3.2 | 0.00 | 0.03 | 0.00 | 67 | 1010.1 |
| 20260505061403 | 15 | 123 | 0.0 | 1.6 | 0.00 | 0.03 | 0.00 | 67 | 1010.0 |
| 20260505060903 | 15 | 162 | 0.0 | 3.2 | 0.00 | 0.03 | 0.00 | 66 | 1010.1 |
| 20260505060403 | 15 | 159 | 0.0 | 3.2 | 0.00 | 0.03 | 0.00 | 66 | 1010.1 |
| 20260505055906 | 15 | 180 | 0.0 | 1.6 | 0.00 | 0.03 | 0.00 | 66 | 1010.2 |
| 20260505055403 | 15 | 144 | 0.0 | 1.6 | 0.00 | 0.03 | 0.00 | 65 | 1010.3 |
| 20260505054903 | 16 | 114 | 1.6 | 4.8 | 0.00 | 0.03 | 0.00 | 65 | 1010.2 |
| 20260505054404 | 16 | 172 | 1.6 | 3.2 | 0.00 | 0.03 | 0.00 | 65 | 1010.2 |
| 20260505053904 | 16 | 137 | 1.6 | 8.0 | 0.00 | 0.03 | 0.00 | 65 | 1010.2 |
| 20260505053405 | 16 | 98 | 0.0 | 3.2 | 0.00 | 0.03 | 0.00 | 65 | 1010.1 |
| 20260505052903 | 16 | 190 | 0.0 | 1.6 | 0.00 | 0.03 | 0.00 | 64 | 1010.1 |
| 20260505052403 | 16 | 282 | 0.0 | 1.6 | 0.00 | 0.03 | 0.00 | 64 | 1010.2 |
| 20260505051903 | 16 | 298 | 0.0 | 3.2 | 0.00 | 0.03 | 0.00 | 63 | 1010.1 |
| 20260505051404 | 16 | 148 | 1.6 | 4.8 | 0.00 | 0.03 | 0.00 | 62 | 1010.2 |
| 20260505050903 | 16 | 144 | 1.6 | 4.8 | 0.00 | 0.03 | 0.00 | 62 | 1010.2 |
| 20260505050404 | 16 | 224 | 1.6 | 6.4 | 0.00 | 0.03 | 0.00 | 62 | 1010.3 |
| 20260505041403 | 17 | 150 | 3.2 | 12.9 | 0.00 | 0.03 | 0.00 | 60 | 1009.9 |
| 20260505040903 | 17 | 173 | 3.2 | 12.9 | 0.00 | 0.03 | 0.00 | 59 | 1009.9 |
| 20260505040403 | 17 | 123 | 3.2 | 8.0 | 0.00 | 0.03 | 0.00 | 59 | 1009.9 |
| 20260505035905 | 17 | 128 | 3.2 | 6.4 | 0.00 | 0.03 | 0.03 | 59 | 1009.9 |
| 20260505035403 | 17 | 174 | 3.2 | 8.0 | 0.00 | 0.03 | 0.03 | 59 | 1009.9 |
| 20260505034903 | 17 | 221 | 4.8 | 11.3 | 0.00 | 0.03 | 0.03 | 58 | 1009.9 |
| 20260505034403 | 17 | 189 | 4.8 | 11.3 | 0.00 | 0.03 | 0.03 | 58 | 1009.8 |
| 20260505033903 | 17 | 161 | 3.2 | 14.5 | 0.00 | 0.03 | 0.03 | 58 | 1009.8 |
| 20260505033403 | 17 | 212 | 3.2 | 9.7 | 0.00 | 0.03 | 0.03 | 58 | 1009.8 |
| 20260505032903 | 17 | 171 | 3.2 | 4.8 | 0.00 | 0.03 | 0.03 | 59 | 1009.8 |
| 20260505032403 | 17 | 153 | 4.8 | 12.9 | 0.00 | 0.03 | 0.03 | 57 | 1009.8 |
| 20260505031903 | 17 | 215 | 4.8 | 16.1 | 0.00 | 0.03 | 0.03 | 58 | 1009.8 |
| 20260505031404 | 17 | 187 | 4.8 | 14.5 | 0.00 | 0.03 | 0.03 | 58 | 1009.7 |
| 20260505030903 | 17 | 219 | 4.8 | 12.9 | 0.00 | 0.03 | 0.03 | 59 | 1009.8 |
| 20260505030404 | 17 | 140 | 4.8 | 9.7 | 0.00 | 0.03 | 0.03 | 59 | 1009.7 |
| 20260505025907 | 17 | 250 | 4.8 | 19.3 | 0.00 | 0.03 | 0.03 | 58 | 1009.8 |
| 20260505025403 | 17 | 178 | 4.8 | 9.7 | 0.00 | 0.03 | 0.03 | 59 | 1009.8 |
| 20260505024905 | 17 | 214 | 3.2 | 14.5 | 0.00 | 0.03 | 0.03 | 59 | 1009.8 |
| 20260505024403 | 17 | 221 | 3.2 | 12.9 | 0.00 | 0.03 | 0.03 | 59 | 1009.8 |
| 20260505023903 | 17 | 146 | 3.2 | 12.9 | 0.00 | 0.03 | 0.03 | 59 | 1009.6 |
| 20260505023403 | 17 | 186 | 1.6 | 8.0 | 0.00 | 0.03 | 0.03 | 58 | 1009.7 |
| 20260505022905 | 17 | 164 | 1.6 | 8.0 | 0.00 | 0.03 | 0.03 | 58 | 1009.7 |
| 20260505022442 | 17 | 184 | 3.2 | 4.8 | 0.00 | 0.03 | 0.03 | 58 | 1009.7 |
| 20260505022403 | 17 | 184 | 3.2 | 4.8 | 0.00 | 0.03 | 0.03 | 58 | 1009.7 |
| 20260505021904 | 17 | 183 | 3.2 | 9.7 | 0.03 | 0.03 | 0.03 | 58 | 1009.7 |
| 20260505021403 | 17 | 226 | 3.2 | 6.4 | 0.03 | 0.03 | 0.03 | 58 | 1009.9 |
| 20260505020904 | 17 | 248 | 1.6 | 6.4 | 0.03 | 0.03 | 0.03 | 58 | 1009.8 |
| 20260505020508 | 17 | 221 | 1.6 | 4.8 | 0.03 | 0.03 | 0.03 | 59 | 1009.9 |
| 20260505020403 | 17 | 221 | 1.6 | 4.8 | 0.03 | 0.03 | 0.03 | 59 | 1009.9 |
| 20260505015905 | 17 | 265 | 1.6 | 4.8 | 0.03 | 0.03 | 0.03 | 57 | 1009.8 |
| 20260505015403 | 17 | 178 | 1.6 | 8.0 | 0.03 | 0.03 | 0.03 | 58 | 1009.7 |
| 20260505014903 | 17 | 163 | 3.2 | 6.4 | 0.03 | 0.03 | 0.03 | 60 | 1009.6 |
| 20260505014403 | 17 | 221 | 3.2 | 12.9 | 0.03 | 0.03 | 0.03 | 58 | 1009.6 |
| 20260505013903 | 17 | 22 | 3.2 | 9.7 | 0.03 | 0.03 | 0.03 | 60 | 1009.6 |
| 20260505013405 | 17 | 228 | 6.4 | 11.3 | 0.03 | 0.03 | 0.03 | 60 | 1009.7 |
| 20260505012905 | 18 | 178 | 9.7 | 19.3 | 0.03 | 0.03 | 0.03 | 57 | 1009.7 |
| 20260505012403 | 18 | 225 | 8.0 | 22.5 | 0.03 | 0.03 | 0.03 | 56 | 1009.5 |
| 20260505011904 | 18 | 153 | 4.8 | 8.0 | 0.00 | 0.00 | 0.00 | 49 | 1009.4 |
| 20260505011403 | 19 | 223 | 4.8 | 8.0 | 0.00 | 0.00 | 0.00 | 47 | 1009.7 |
| 20260505010904 | 19 | 172 | 3.2 | 11.3 | 0.00 | 0.00 | 0.00 | 47 | 1009.5 |
| 20260505010403 | 19 | 183 | 3.2 | 6.4 | 0.00 | 0.00 | 0.00 | 46 | 1009.2 |
| 20260505005904 | 20 | 159 | 4.8 | 14.5 | 0.00 | 0.00 | 0.00 | 46 | 1009.1 |
| 20260505005403 | 20 | 165 | 4.8 | 8.0 | 0.00 | 0.00 | 0.00 | 45 | 1009.2 |
| 20260505004903 | 20 | 152 | 6.4 | 11.3 | 0.00 | 0.00 | 0.00 | 45 | 1009.0 |
| 20260505004403 | 20 | 154 | 6.4 | 14.5 | 0.00 | 0.00 | 0.00 | 45 | 1009.0 |
| 20260505003903 | 20 | 152 | 4.8 | 12.9 | 0.00 | 0.00 | 0.00 | 45 | 1008.9 |
| 20260505003436 | 20 | 140 | 4.8 | 12.9 | 0.00 | 0.00 | 0.00 | 44 | 1008.9 |
| 20260505003403 | 20 | 140 | 4.8 | 12.9 | 0.00 | 0.00 | 0.00 | 44 | 1008.9 |
| 20260505002907 | 20 | 188 | 4.8 | 11.3 | 0.00 | 0.00 | 0.00 | 44 | 1008.9 |
| 20260505002403 | 20 | 165 | 6.4 | 16.1 | 0.00 | 0.00 | 0.00 | 43 | 1008.8 |
| 20260505001903 | 20 | 165 | 6.4 | 14.5 | 0.00 | 0.00 | 0.00 | 43 | 1008.8 |
| 20260505001403 | 20 | 209 | 6.4 | 17.7 | 0.00 | 0.00 | 0.00 | 43 | 1008.9 |
| 20260505000903 | 21 | 188 | 6.4 | 19.3 | 0.00 | 0.00 | 0.00 | 42 | 1008.9 |
| 20260505000405 | 21 | 180 | 6.4 | 14.5 | 0.00 | 0.00 | 0.00 | 42 | 1009.0 |
| 20260504235903 | 21 | 161 | 6.4 | 14.5 | 0.00 | 0.00 | 0.00 | 41 | 1009.0 |
| 20260504235404 | 21 | 219 | 6.4 | 14.5 | 0.00 | 0.00 | 0.00 | 41 | 1008.9 |
| 20260504234903 | 21 | 182 | 6.4 | 19.3 | 0.00 | 0.00 | 0.00 | 40 | 1008.8 |
| 20260504234404 | 21 | 193 | 4.8 | 14.5 | 0.00 | 0.00 | 0.00 | 40 | 1008.8 |
| 20260504233904 | 22 | 158 | 4.8 | 12.9 | 0.00 | 0.00 | 0.00 | 40 | 1008.8 |
| 20260504233404 | 22 | 158 | 6.4 | 16.1 | 0.00 | 0.00 | 0.00 | 39 | 1008.8 |
| 20260504232904 | 22 | 182 | 6.4 | 14.5 | 0.00 | 0.00 | 0.00 | 38 | 1008.7 |
| 20260504232404 | 22 | 207 | 6.4 | 11.3 | 0.00 | 0.00 | 0.00 | 38 | 1008.7 |
| 20260504231904 | 22 | 262 | 6.4 | 20.9 | 0.00 | 0.00 | 0.00 | 38 | 1008.6 |
| 20260504231404 | 22 | 177 | 6.4 | 14.5 | 0.00 | 0.00 | 0.00 | 38 | 1008.6 |
| 20260504230904 | 22 | 165 | 8.0 | 14.5 | 0.00 | 0.00 | 0.00 | 39 | 1008.6 |
| 20260504230404 | 22 | 155 | 8.0 | 16.1 | 0.00 | 0.00 | 0.00 | 38 | 1008.5 |
| 20260504225904 | 22 | 189 | 6.4 | 17.7 | 0.00 | 0.00 | 0.00 | 38 | 1008.7 |
| 20260504225404 | 22 | 123 | 6.4 | 16.1 | 0.00 | 0.00 | 0.00 | 39 | 1008.7 |
| 20260504224904 | 22 | 177 | 8.0 | 12.9 | 0.00 | 0.00 | 0.00 | 38 | 1008.8 |
| 20260504224404 | 22 | 152 | 8.0 | 24.1 | 0.00 | 0.00 | 0.00 | 38 | 1008.8 |
| 20260504223904 | 23 | 212 | 6.4 | 14.5 | 0.00 | 0.00 | 0.00 | 39 | 1008.8 |
| 20260504223404 | 23 | 135 | 8.0 | 17.7 | 0.00 | 0.00 | 0.00 | 38 | 1008.8 |
| 20260504222904 | 23 | 169 | 6.4 | 17.7 | 0.00 | 0.00 | 0.00 | 39 | 1008.9 |
| 20260504222404 | 23 | 148 | 4.8 | 11.3 | 0.00 | 0.00 | 0.00 | 38 | 1008.8 |
| 20260504221904 | 22 | 191 | 6.4 | 12.9 | 0.00 | 0.00 | 0.00 | 37 | 1008.8 |
| 20260504221404 | 22 | 194 | 9.7 | 17.7 | 0.00 | 0.00 | 0.00 | 38 | 1008.8 |
| 20260504220904 | 22 | 191 | 9.7 | 19.3 | 0.00 | 0.00 | 0.00 | 38 | 1008.9 |
| 20260504220404 | 23 | 154 | 9.7 | 17.7 | 0.00 | 0.00 | 0.00 | 37 | 1008.9 |
| 20260504215905 | 22 | 168 | 9.7 | 20.9 | 0.00 | 0.00 | 0.00 | 37 | 1008.9 |
| 20260504215404 | 22 | 167 | 8.0 | 16.1 | 0.00 | 0.00 | 0.00 | 38 | 1009.0 |
| 20260504214904 | 22 | 188 | 8.0 | 19.3 | 0.00 | 0.00 | 0.00 | 39 | 1009.0 |
| 20260504214404 | 22 | 170 | 8.0 | 20.9 | 0.00 | 0.00 | 0.00 | 39 | 1009.0 |
| 20260504213904 | 22 | 174 | 8.0 | 19.3 | 0.00 | 0.00 | 0.00 | 38 | 1008.9 |
| 20260504213404 | 22 | 157 | 6.4 | 20.9 | 0.00 | 0.00 | 0.00 | 39 | 1008.9 |
| 20260504212904 | 22 | 190 | 6.4 | 14.5 | 0.00 | 0.00 | 0.00 | 40 | 1008.9 |
| 20260504212404 | 22 | 148 | 9.7 | 16.1 | 0.00 | 0.00 | 0.00 | 39 | 1009.0 |
| 20260504211904 | 22 | 143 | 11.3 | 22.5 | 0.00 | 0.00 | 0.00 | 38 | 1009.0 |
| 20260504211405 | 22 | 163 | 9.7 | 22.5 | 0.00 | 0.00 | 0.00 | 38 | 1009.0 |
| 20260504210904 | 22 | 218 | 12.9 | 19.3 | 0.00 | 0.00 | 0.00 | 37 | 1009.1 |
| 20260504210404 | 22 | 134 | 14.5 | 24.1 | 0.00 | 0.00 | 0.00 | 37 | 1009.0 |
| 20260504205904 | 23 | 196 | 12.9 | 27.4 | 0.00 | 0.00 | 0.00 | 37 | 1008.9 |
| 20260504205404 | 23 | 252 | 11.3 | 22.5 | 0.00 | 0.00 | 0.00 | 37 | 1009.1 |
| 20260504204904 | 23 | 213 | 12.9 | 19.3 | 0.00 | 0.00 | 0.00 | 39 | 1009.0 |
| 20260504204404 | 23 | 194 | 12.9 | 32.2 | 0.00 | 0.00 | 0.00 | 36 | 1009.0 |
| 20260504203904 | 23 | 150 | 12.9 | 24.1 | 0.00 | 0.00 | 0.00 | 38 | 1009.0 |
| 20260504203404 | 22 | 209 | 14.5 | 30.6 | 0.00 | 0.00 | 0.00 | 37 | 1008.9 |
| 20260504202905 | 23 | 239 | 14.5 | 29.0 | 0.00 | 0.00 | 0.00 | 38 | 1009.0 |
| 20260504202404 | 22 | 225 | 11.3 | 27.4 | 0.00 | 0.00 | 0.00 | 36 | 1009.1 |
| 20260504201904 | 22 | 90 | 11.3 | 25.7 | 0.00 | 0.00 | 0.00 | 36 | 1009.1 |
| 20260504201404 | 22 | 87 | 11.3 | 22.5 | 0.00 | 0.00 | 0.00 | 38 | 1009.1 |
| 20260504200904 | 23 | 213 | 9.7 | 25.7 | 0.00 | 0.00 | 0.00 | 36 | 1009.3 |
| 20260504200404 | 22 | 201 | 11.3 | 20.9 | 0.00 | 0.00 | 0.00 | 37 | 1009.4 |
| 20260504195904 | 22 | 150 | 11.3 | 27.4 | 0.00 | 0.00 | 0.00 | 39 | 1009.5 |
| 20260504195404 | 22 | 187 | 12.9 | 22.5 | 0.00 | 0.00 | 0.00 | 38 | 1009.6 |
| 20260504194904 | 22 | 244 | 14.5 | 30.6 | 0.00 | 0.00 | 0.00 | 37 | 1009.8 |
| 20260504194404 | 22 | 201 | 12.9 | 24.1 | 0.00 | 0.00 | 0.00 | 39 | 1009.9 |
| 20260504193904 | 22 | 200 | 11.3 | 25.7 | 0.00 | 0.00 | 0.00 | 37 | 1009.9 |
| 20260504193404 | 22 | 85 | 9.7 | 22.5 | 0.00 | 0.00 | 0.00 | 36 | 1009.9 |
| 20260504192914 | 22 | 144 | 9.7 | 22.5 | 0.00 | 0.00 | 0.00 | 38 | 1010.1 |
| 20260504192404 | 22 | 211 | 11.3 | 17.7 | 0.00 | 0.00 | 0.00 | 37 | 1010.1 |
| 20260504191904 | 22 | 181 | 11.3 | 17.7 | 0.00 | 0.00 | 0.00 | 37 | 1010.4 |
| 20260504191404 | 22 | 157 | 9.7 | 19.3 | 0.00 | 0.00 | 0.00 | 37 | 1010.4 |
| 20260504190904 | 22 | 137 | 11.3 | 19.3 | 0.00 | 0.00 | 0.00 | 39 | 1010.5 |
| 20260504190404 | 22 | 212 | 11.3 | 22.5 | 0.00 | 0.00 | 0.00 | 40 | 1010.6 |
| 20260504185907 | 22 | 241 | 11.3 | 17.7 | 0.00 | 0.00 | 0.00 | 38 | 1010.8 |
| 20260504185405 | 22 | 233 | 12.9 | 19.3 | 0.00 | 0.00 | 0.00 | 39 | 1010.9 |
| 20260504184904 | 22 | 194 | 12.9 | 29.0 | 0.00 | 0.00 | 0.00 | 37 | 1010.9 |
| 20260504184404 | 22 | 234 | 12.9 | 24.1 | 0.00 | 0.00 | 0.00 | 38 | 1011.0 |
| 20260504183904 | 22 | 219 | 14.5 | 19.3 | 0.00 | 0.00 | 0.00 | 40 | 1011.2 |
| 20260504183404 | 21 | 241 | 12.9 | 32.2 | 0.00 | 0.00 | 0.00 | 39 | 1011.1 |
| 20260504182906 | 22 | 245 | 9.7 | 30.6 | 0.00 | 0.00 | 0.00 | 37 | 1011.2 |
| 20260504182405 | 22 | 223 | 8.0 | 20.9 | 0.00 | 0.00 | 0.00 | 36 | 1011.3 |
| 20260504181904 | 21 | 261 | 11.3 | 12.9 | 0.00 | 0.00 | 0.00 | 38 | 1011.4 |
| 20260504181404 | 21 | 222 | 11.3 | 30.6 | 0.00 | 0.00 | 0.00 | 37 | 1011.4 |
| 20260504180904 | 21 | 186 | 8.0 | 20.9 | 0.00 | 0.00 | 0.00 | 38 | 1011.5 |
| 20260504180404 | 21 | 146 | 6.4 | 12.9 | 0.00 | 0.00 | 0.00 | 38 | 1011.5 |
| 20260504175907 | 21 | 144 | 8.0 | 14.5 | 0.00 | 0.00 | 0.00 | 38 | 1011.6 |
| 20260504175404 | 21 | 265 | 9.7 | 17.7 | 0.00 | 0.00 | 0.00 | 42 | 1011.5 |
| 20260504174904 | 21 | 184 | 12.9 | 22.5 | 0.00 | 0.00 | 0.00 | 41 | 1011.7 |
| 20260504174405 | 21 | 223 | 11.3 | 22.5 | 0.00 | 0.00 | 0.00 | 37 | 1011.8 |
| 20260504173904 | 21 | 200 | 9.7 | 20.9 | 0.00 | 0.00 | 0.00 | 38 | 1011.7 |
| 20260504173404 | 21 | 209 | 8.0 | 16.1 | 0.00 | 0.00 | 0.00 | 38 | 1011.7 |
| 20260504172905 | 21 | 218 | 9.7 | 25.7 | 0.00 | 0.00 | 0.00 | 40 | 1011.9 |
| 20260504172404 | 20 | 211 | 11.3 | 19.3 | 0.00 | 0.00 | 0.00 | 39 | 1011.9 |
| 20260504171405 | 20 | 252 | 9.7 | 17.7 | 0.00 | 0.00 | 0.00 | 37 | 1012.1 |
| 20260504170905 | 20 | 166 | 9.7 | 17.7 | 0.00 | 0.00 | 0.00 | 39 | 1012.1 |
| 20260504170404 | 20 | 226 | 9.7 | 19.3 | 0.00 | 0.00 | 0.00 | 40 | 1012.1 |
| 20260504160405 | 19 | 224 | 9.7 | 19.3 | 0.00 | 0.00 | 0.00 | 38 | 1013.0 |
| 20260504150905 | 18 | 221 | 8.0 | 16.1 | 0.00 | 0.00 | 0.00 | 40 | 1013.8 |
| 20260504150405 | 18 | 109 | 4.8 | 12.9 | 0.00 | 0.00 | 0.00 | 41 | 1013.8 |
| 20260504140908 | 16 | 282 | 8.0 | 14.5 | 0.00 | 0.00 | 0.00 | 46 | 1013.9 |
| 20260504140405 | 16 | 202 | 4.8 | 16.1 | 0.00 | 0.00 | 0.00 | 47 | 1014.0 |
| 20260504130505 | 12 | 149 | 4.8 | 11.3 | 0.00 | 0.00 | 0.00 | 52 | 1014.4 |
| 20260504130405 | 12 | 149 | 4.8 | 11.3 | 0.00 | 0.00 | 0.00 | 52 | 1014.4 |